Grand Canyon, AZ

12:10 AM MST on July 29, 2016 (GMT -0700)
Grand Canyon National Park

Weather History for KGCN - June, 2013

Change the Weather History Date:

Sunday, June 30, 2013

  Actual Average Record
Temperature  
Mean Temperature 74 °F -  
Max Temperature 97 °F 83 °F 97 °F (2013)
Min Temperature 50 °F 41 °F 30 °F (1997)
Cooling Degree Days 8    
Growing Degree Days 24 (Base 50)    
Moisture  
Dew Point 28 °F    
Average Humidity 22    
Maximum Humidity 45    
Minimum Humidity 6    
Precipitation  
Precipitation 0.00 in - - ()
Sea Level Pressure  
Sea Level Pressure 29.88 in    
Wind  
Wind Speed 3 mph (NE)    
Max Wind Speed 20 mph    
Max Gust Speed 28 mph    
Visibility 10 miles    
Events      
Averages and records for this station are not official NWS values.
T = Trace of Precipitation, MM = Missing Value Source: NWS Daily Summary

Daily Weather History Graph

Daily Weather History Graph

Search for Another Location

Airport or City:

Trip Planner

Search our weather history database for the weather conditions in past years. The results will help you decide how hot, cold, wet, or windy it might be!

Date:

Astronomy

Jun. 30, 2013 Rise Set
Actual Time 5:15 AM MST 7:49 PM MST
Civil Twilight 4:45 AM MST 8:19 PM MST
Nautical Twilight 4:07 AM MST 8:56 PM MST
Astronomical Twilight 3:26 AM MST 9:38 PM MST
Moon 12:06 AM MST (6/30) 1:15 PM MST (6/30)
Length of Visible Light 15h 34m
Length of Day
14h 33m
Last Quarter, 44% of the Moon is Illuminated
Jun 30
Last Quarter
Jul 8
New
Jul 15
First Quarter
Jul 22
Full
Jul 29
Last Quarter

Hourly Weather History & Observations

Time (MST) Temp. Dew Point Humidity Pressure Visibility Wind Dir Wind Speed Gust Speed Precip Events Conditions
12:54 AM 55.0 °F 28.9 °F 37% 29.89 in 10.0 mi Calm Calm - N/A   Clear
1:54 AM 54.0 °F 28.9 °F 38% 29.90 in 10.0 mi Calm Calm - N/A   Clear
2:54 AM 52.0 °F 30.0 °F 43% 29.91 in 10.0 mi Calm Calm - N/A   Clear
3:54 AM 50.0 °F 28.0 °F 43% 29.91 in 10.0 mi Calm Calm - N/A   Clear
4:54 AM 52.0 °F 30.0 °F 43% 29.92 in 10.0 mi NE 5.8 mph - N/A   Clear
5:54 AM 52.0 °F 30.9 °F 45% 29.94 in 10.0 mi Calm Calm - N/A   Clear
6:54 AM 64.9 °F 33.1 °F 31% 29.91 in 10.0 mi NE 4.6 mph - N/A   Clear
7:54 AM 80.1 °F 34.0 °F 19% 29.88 in 10.0 mi Calm Calm - N/A   Clear
8:54 AM 87.1 °F 28.9 °F 12% 29.90 in 10.0 mi Calm Calm - N/A   Clear
9:54 AM 91.0 °F 27.0 °F 10% 29.89 in 10.0 mi Variable 3.5 mph - N/A   Clear
10:54 AM 93.9 °F 26.1 °F 9% 29.87 in 10.0 mi Variable 5.8 mph - N/A   Clear
11:54 AM 96.1 °F 25.0 °F 8% 29.88 in 10.0 mi NNE 10.4 mph - N/A   Clear
12:54 PM 96.1 °F 26.1 °F 8% 29.87 in 10.0 mi NNE 19.6 mph 27.6 mph N/A   Clear
1:54 PM 97.0 °F 19.0 °F 6% 29.85 in 10.0 mi North 12.7 mph 23.0 mph N/A   Clear
2:54 PM 96.1 °F 21.9 °F 7% 29.85 in 10.0 mi NNE 10.4 mph 17.3 mph N/A   Clear
3:54 PM 95.0 °F 19.9 °F 7% 29.83 in 10.0 mi Variable 5.8 mph - N/A   Clear
4:54 PM 91.9 °F 19.9 °F 7% 29.85 in 10.0 mi Calm Calm - N/A   Clear
5:54 PM 88.0 °F 27.0 °F 11% 29.87 in 10.0 mi East 4.6 mph - N/A   Clear
6:54 PM 84.9 °F 32.0 °F 15% 29.84 in 10.0 mi SE 3.5 mph - N/A   Clear
7:54 PM 77.0 °F 30.9 °F 19% 29.83 in 10.0 mi Calm Calm - N/A   Partly Cloudy
8:54 PM 73.0 °F 32.0 °F 22% 29.84 in 10.0 mi Calm Calm - N/A   Clear
9:54 PM 63.0 °F 28.0 °F 27% 29.88 in 10.0 mi Calm Calm - N/A   Clear
10:54 PM 61.0 °F 30.0 °F 31% 29.87 in 10.0 mi Calm Calm - N/A   Clear
11:54 PM 59.0 °F 30.0 °F 33% 29.88 in 10.0 mi Calm Calm - N/A   Clear